Regional Weather Roundup
Issued by NWS Sioux Falls, SD

Home | Current Version | Previous Version | Graphics & Text | Print | Product List | Glossary On
Versions: 1 2 3 4 5 6 7 8 9 10 11 12 13 14 15 16 17 18 19 20 21 22 23 24 25 26 27 28 29 30 31 32 33 34 35 36 37 38 39 40 41 42 43 44 45 46 47 48 49 50
745
ASUS43 KFSD 251602
RWRFSD

WEATHER ROUNDUP FOR SE SOUTH DAKOTA/SW MINNESOTA/NW IOWA
NATIONAL WEATHER SERVICE SIOUX FALLS SD
1000 AM CST SUN FEB 25 2018

NOTE: "FAIR" INDICATES FEW OR NO CLOUDS BELOW 12,000 FEET WITH NO
SIGNIFICANT WEATHER AND OR OBSTRUCTIONS TO VISIBILITY.


SDZ038>040-050-052>070-251700-
SOUTHEAST SOUTH DAKOTA

CITY           SKY/WX    TMP DP  RH WIND       PRES   REMARKS
BROOKINGS      CLOUDY    20  15  81 W13       29.76R WCI   7
CHAMBERLAIN    SUNNY     23  13  65 W9        29.84R WCI  13
HURON          SUNNY     22  16  78 W13       29.79S WCI  10
MADISON        CLOUDY    19  19 100 W14       29.77S WCI   6
MITCHELL       SUNNY     23  13  65 W10       29.85R WCI  12
SIOUX FALLS    PTSUNNY   23  16  74 W13G21    29.83R WCI  11
WINNER         FAIR      24  11  57 SW8       29.85R WCI  15
YANKTON        SUNNY     29  15  56 W16       29.88R WCI  17
$$

MNZ071-072-080-081-089-090-097-098-251700-
SOUTHWEST MINNESOTA

CITY           SKY/WX    TMP DP  RH WIND       PRES   REMARKS
FAIRMONT       SUNNY     20  13  74 W21       29.79R WCI   4
JACKSON        SUNNY     19  12  73 W24G31    29.77R HAZE    WCI   2
LUVERNE        SUNNY     21  12  68 W14       29.83R WCI   8
MARSHALL       NOT AVBL
MONTEVIDEO     CLOUDY    21  16  79 NW13      29.73R WCI   9
PIPESTONE      CLOUDY    18  12  79 W17       29.77R WCI   2
REDWOOD FALLS  PTSUNNY   17  11  77 W22       29.75R WCI   0
TRACY          SUNNY     20  14  80 W15       29.75R WCI   6
WORTHINGTON    SUNNY     21  11  65 W9        29.80R WCI  11
$$

IAZ001>003-012>014-020>022-031-032-NEZ013-014-SDZ071-251700-
NORTHWEST IOWA

CITY           SKY/WX    TMP DP  RH WIND       PRES   REMARKS
DENISON        SUNNY     27  18  69 SW10      29.92S WCI  17
ESTHERVILLE    SUNNY     20  13  74 W21G31    29.78R WCI   4
LE MARS        SUNNY     27  16  63 SW8G15    29.88S WCI  18
ORANGE CITY    SUNNY     25  18  74 W16       29.84S WCI  12
SHELDON        SUNNY     21  14  73 W15       29.82R WCI   8
SIOUX CITY     SUNNY     26  13  57 W9        29.91R WCI  17
SPENCER        SUNNY     23  13  65 W14       29.83R WCI  11
STORM LAKE     SUNNY     25  14  63 W17       29.85R WCI  11
$$

ABBREVIATIONS USED IN REMARKS
   TC - TEMPERATURE IN CELSIUS
  WCI - WIND CHILL INDEX
   HX - HEAT INDEX
  VSB - VISIBILITY





USA.gov is the U.S. government's official web portal to all federal, state and local government web resources and services.